Please be sure to check the latest weather conditions by clicking the link and viewing our local weather information!

Check Weather

Welcome to Lakeway Airpark (3R9)

FromTheAir

We’re a community airpark nestled within the town of Lakeway, Texas (17 miles northwest of downtown Austin).

Lakeway Airpark, Inc. was formed by Lakeway residents and interested parties to own and manage Lakeway Airpark (3R9).

The Airpark is a privately owned not for profit public use airport for residents and guests of Lakeway. No public funds are used and the airport is supported by fees and fuel sales at the airport.

Lakeway Airpark is an unmanned facility open for use from Sunrise to Sunset seven days a week. Takeoffs and landings are not permitted at night, between Sunset and Sunrise, by City Ordinance.

Quick Weather Info

Available data for KAUS from the past 2 hours

metar

  • KAUS 111753Z 19014KT 10SM CLR 24/04 A3015 RMK AO2 SLP205 T02440039 10244 20011 58007
  • KAUS 111653Z 21011KT 10SM R17L/5000VP6000FT CLR 23/04 A3017 RMK AO2 SLP211 T02280039

taf

  • KAUS 111736Z 1118/1224 20012KT P6SM SKC FM120200 18004KT P6SM SKC FM121600 35010KT P6SM FEW250